Regional Weather Roundup
Issued by NWS

Home | Current Version | Previous Version | Text Only | Print | Product List | Glossary On
Versions: 1 2 3 4 5 6 7 8 9 10 11 12 13 14 15 16 17 18 19 20 21 22 23 24 25 26 27 28 29 30 31 32 33 34 35 36 37 38 39 40 41 42 43 44 45 46 47 48 49 50
699
ASUS46 KSTO 261815
RWRCA

NORTHERN AND CENTRAL CA REGIONAL WEATHER ROUNDUP
NATIONAL WEATHER SERVICE SACRAMENTO CA
1100 AM PDT WED APR 26 2017

NOTE: FAIR INDICATES FEW OR NO CLOUDS BELOW 12,000 FEET WITH NO
SIGNIFICANT WEATHER AND/OR OBSTRUCTIONS TO VISIBILITY.

CAZ001-003-261900-
NORTHWEST AREA

CITY           SKY/WX    TMP DP  RH WIND       PRES   REMARKS
CRESCENT CITY  LGT RAIN  53  53 100 W9        30.00R FOG
UKIAH          CLOUDY    59  54  83 CALM      30.03R
$$

CAZ006-505>513-261900-
BAY AREA

CITY           SKY/WX    TMP DP  RH WIND       PRES   REMARKS
SANTA ROSA     CLOUDY    61  55  81 W7        30.02S
SAN RAFAEL     N/A       60  MM  MM MISG
NAPA           CLOUDY    62  57  83 SW13      30.05R FOG
CONCORD        CLOUDY    64  55  72 SW13      30.05S
OAKLAND CITY   N/A      MM  MM  MM MISG
OAKLAND        DRIZZLE   61  60  97 W9        30.08S
SAN FRAN CITY  N/A       59  MM  99 MISG
SAN FRAN ARPT  CLOUDY    61  56  83 W12       30.07S
LIVERMORE      CLOUDY    59  55  87 SW9       30.05S
HAYWARD        CLOUDY    62  54  74 W8        30.07R HAZE
REDWOOD CITY   N/A       63  MM  76 MISG
MOFFETT ARPT   CLOUDY    63  55  75 VRB5      30.07S
SAN JOSE ARPT  CLOUDY    64  53  67 E5        30.07S
$$
CAZ034-037-514>518-261900-
CENTRAL COAST

CITY           SKY/WX    TMP DP  RH WIND       PRES   REMARKS
WATSONVILLE    CLOUDY    59  57  93 S3        30.10S FOG
SALINAS        CLOUDY    62  55  77 CALM      30.09S
MONTEREY       CLOUDY    62  55  77 NW6       30.10R
SAN LUIS OBISP SUNNY     70  54  56 NW10      30.03F
SANTA MARIA    SUNNY     64  55  72 W16       30.03S
$$
CAZ015-016-261900-
NORTHERN SACRAMENTO VALLEY

CITY           SKY/WX    TMP DP  RH WIND       PRES   REMARKS
REDDING        CLOUDY    58  55  90 S15       29.95S FOG
RED BLUFF      CLOUDY    61  53  75 S18       29.97R
OROVILLE       LGT RAIN  60  55  83 SE15G26   30.02R
$$
CAZ016>018-261900-
SOUTHERN SACRAMENTO VALLEY

CITY           SKY/WX    TMP DP  RH WIND       PRES   REMARKS
AUBURN         CLOUDY    54  54 100 MISG      30.03S VSB 3/4
BEALE AFB      CLOUDY    59  57  93 SE14      30.01R FOG
LINCOLN        CLOUDY    59  55  88 S12       30.01F
MARYSVILLE     CLOUDY    61  56  83 S14       30.01F
SAC INTL ARPT  CLOUDY    62  58  86 S17       30.01R
MATHER AIRPORT CLOUDY    57  57 100 S10       30.04S
DOWNTOWN SAC   N/A       62  MM  MM MISG
SAC EXEC ARPT  CLOUDY    62  57  83 S13G20    30.03R
VACAVILLE      PTSUNNY   65  57  75 SW10      30.02S
TRAVIS AFB     CLOUDY    63  57  82 SW15      30.00S
$$
CAZ019>021-261900-
SAN JOAQUIN VALLEY

CITY           SKY/WX    TMP DP  RH WIND       PRES   REMARKS
STOCKTON       CLOUDY    61  57  87 S7        30.05F
MODESTO        CLOUDY    62  56  80 CALM      30.05F
MERCED         CLOUDY    63  53  70 NW7       30.06S
LEMOORE        PTSUNNY   68  47  46 NW9       30.06F
FRESNO         CLOUDY    64  52  64 NW5       30.05F
HANFORD        PTSUNNY   70  52  52 NW9G17    30.06S
PORTERVILLE      N/A     67  52  58 VRB7      30.06F
BAKERSFIELD    SUNNY     68  49  50 CALM      30.06S
$$
CAZ011-012-071-261900-
NORTHERN MOUNTAINS

CITY           SKY/WX    TMP DP  RH WIND       PRES   REMARKS
YREKA          CLOUDY    53  47  79 NE3       29.90S
MOUNT SHASTA   CLOUDY    49  45  86 SE5       29.92S
ALTURAS        CLOUDY    46  44  93 W12       29.89S
$$
CAZ011-012-071-261900-
SIERRA NEVADA MTNS

CITY           SKY/WX    TMP DP  RH WIND       PRES   REMARKS
BLUE CANYON    LGT RAIN  43  43 100 S13G20    30.05S VSB 1/4
TRUCKEE        CLOUDY    48  39  71 S10       30.01F
TAHOE VLY ARPT CLOUDY    47  39  74 S10G23    30.02F
MAMMOTH LAKES  FAIR      63  31  30 W24G31    30.04F
$$




USA.gov is the U.S. government's official web portal to all federal, state and local government web resources and services.